EW7671 Weather Reports


time (UTC)temp
C
wind
direction
speed
KPH
gust
KPH
rain 1hr
cm
rain 24hr
cm
rain mn
cm
humidity
%
barometer
mb
20260506113101 11 298 0.0 3.2 0.00 0.23 0.05 2 1009.8
20260506111558 11 249 0.0 3.2 0.00 0.23 0.05 2 1010.0
20260506110051 11 123 0.0 0.0 0.00 0.23 0.05 2 1010.1
20260506104554 11 123 0.0 0.0 0.00 0.23 0.05 1 1010.4
20260506103043 10 123 0.0 0.0 0.00 0.23 0.05 1 1010.5
20260506101537 10 123 0.0 0.0 0.00 0.23 0.05 1 1010.7
20260506100033 10 123 0.0 0.0 0.00 0.23 0.05 1 1010.9
20260506094529 9 123 0.0 0.0 0.03 0.23 0.05 1 1010.9
20260506093033 9 123 0.0 0.0 0.03 0.23 0.05 1 1011.1
20260506091524 8 123 0.0 0.0 0.03 0.23 0.05 1 1011.4
20260506090022 9 123 0.0 0.0 0.03 0.23 0.05 1 1011.3
20260506084530 8 123 0.0 0.0 0.00 0.20 0.03 1 1011.3
20260506083006 8 124 0.0 0.0 0.03 0.20 0.03 1 1011.2
20260506081502 8 123 0.0 0.0 0.03 0.20 0.03 1 1011.1
20260506080108 8 333 0.0 6.4 0.03 0.20 0.03 1 1011.2
20260506073103 9 338 0.0 0.0 0.00 0.18 0.00 1 1011.1
20260506071545 8 315 0.0 0.0 0.00 0.18 0.00 1 1011.1
20260506061528 7 151 0.0 1.6 0.00 0.18 0.00 1 1011.5
20260506044501 6 233 0.0 0.0 0.00 0.18 0.00 1 1011.8
20260506043102 6 257 0.0 0.0 0.00 0.18 0.00 1 1012.1
20260506041556 6 257 0.0 0.0 0.00 0.18 0.00 1 1012.0
20260506040048 6 257 0.0 0.0 0.00 0.18 0.00 1 1012.2
20260506034551 6 257 0.0 0.0 0.00 0.18 0.00 1 1012.5
20260506033039 6 282 0.0 0.0 0.00 0.18 0.00 1 1012.5
20260506031535 6 282 0.0 0.0 0.00 0.18 0.00 1 1012.4
20260506030030 6 282 0.0 0.0 0.00 0.18 0.00 1 1012.4
20260506024528 6 282 0.0 0.0 0.00 0.18 0.00 1 1012.1
20260506023022 7 281 0.0 0.0 0.00 0.18 0.00 1 1012.2
20260506021518 7 281 0.0 0.0 0.00 0.18 0.00 1 1012.6
20260506020013 7 281 0.0 0.0 0.00 0.18 0.00 1 1012.8
20260506014508 7 281 0.0 0.0 0.00 0.18 0.00 1 1013.0
20260506013004 7 281 0.0 0.0 0.00 0.18 0.00 1 1012.9
20260506011624 7 281 0.0 0.0 0.00 0.18 0.00 1 1013.1
20260506010115 7 281 0.0 0.0 0.00 0.18 0.00 1 1013.1
20260506004552 7 281 0.0 0.0 0.00 0.18 0.00 1 1013.1
20260506003047 7 281 0.0 0.0 0.00 0.18 0.00 1 1012.9
20260506001544 7 281 0.0 0.0 0.00 0.18 0.00 1 1013.3
20260506000046 7 281 0.0 1.6 0.00 0.18 0.00 1 1013.1
20260505234534 7 281 0.0 0.0 0.00 0.18 0.00 1 1013.3
20260505233033 7 281 0.0 0.0 0.00 0.18 0.00 1 1013.3
20260505231536 7 281 0.0 0.0 0.00 0.18 0.00 1 1013.3
20260505230021 7 281 0.0 0.0 0.00 0.18 0.00 1 1013.3
20260505224517 8 281 0.0 0.0 0.00 0.18 0.00 1 1013.3
20260505223017 8 281 0.0 0.0 0.00 0.18 0.00 1 1013.4
20260505221509 8 281 0.0 0.0 0.00 0.18 0.00 1 1013.5
20260505220008 8 281 0.0 0.0 0.00 0.18 0.00 1 1013.7
20260505214508 8 281 0.0 0.0 0.00 0.18 0.18 1 1013.7
20260505213003 8 281 0.0 0.0 0.03 0.18 0.18 1 1013.8
20260505211600 8 281 0.0 0.0 0.03 0.18 0.18 1 1013.9
20260505210056 8 281 0.0 0.0 0.03 0.18 0.18 1 1014.0
20260505204557 8 281 0.0 0.0 0.05 0.18 0.18 1 1013.8
20260505203048 8 281 0.0 0.0 0.03 0.15 0.15 1 1014.0
20260505201547 8 281 0.0 0.0 0.05 0.15 0.15 1 1013.9
20260505200037 8 281 0.0 0.0 0.05 0.15 0.15 1 1013.9
20260505194534 8 281 0.0 0.0 0.05 0.15 0.15 1 1013.7
20260505193035 8 281 0.0 0.0 0.05 0.15 0.15 1 1013.6
20260505191526 9 279 0.0 0.0 0.05 0.13 0.13 1 1013.5
20260505190020 9 279 0.0 0.0 0.03 0.10 0.10 1 1013.3
20260505184516 9 264 0.0 1.6 0.00 0.08 0.08 1 1013.1
20260505183017 10 277 0.0 0.0 0.00 0.08 0.08 1 1012.9
20260505181508 10 99 0.0 0.0 0.00 0.08 0.08 1 1012.7
20260505180002 10 99 0.0 0.0 0.00 0.08 0.08 1 1012.5
20260505174558 10 99 0.0 0.0 0.00 0.08 0.08 1 1012.5
20260505173054 10 99 0.0 0.0 0.00 0.08 0.08 1 1012.5
20260505171550 10 99 0.0 0.0 0.00 0.08 0.08 1 1012.7
20260505170046 10 99 0.0 0.0 0.00 0.08 0.08 1 1012.6
20260505164554 10 22 0.0 0.0 0.00 0.08 0.08 1 1012.7
20260505163037 10 22 0.0 0.0 0.00 0.08 0.08 1 1012.8
20260505161544 10 5 0.0 0.0 0.00 0.08 0.08 1 1012.8
20260505153019 10 5 0.0 0.0 0.00 0.08 0.08 1 1012.7
20260505151514 10 40 0.0 1.6 0.00 0.08 0.08 1 1012.7
20260505124549 9 333 0.0 0.0 0.03 0.05 0.05 1 1013.1
20260505123043 9 339 0.0 3.2 0.05 0.05 0.05 1 1013.2
20260505121537 9 306 0.0 3.2 0.05 0.05 0.05 1 1013.2
20260505120040 9 344 0.0 3.2 0.05 0.05 0.05 1 1013.1
20260505114526 10 321 0.0 4.8 0.05 0.05 0.05 1 1012.9